Location: Tel Aviv
(32.0670°N, 34.7670°E)
Time: 08:25:49
(UTC+03:00)

DUCHIFAT 1 - Pass Details

Date: 29 February 2024
Orbit: 543 x 559 km, 98.1° (Epoch: 17 April)

Event Time Altitude Azimuth Distance (km) Brightness Sun altitude
Rises 04:27:31 0° 1° (N) 2,709 ? -22.3°
Reaches altitude 10° 04:29:46 10° 351° (N) 1,814 ? -21.8°
Enters shadow 04:30:11 12° 349° (NNW) 1,659 ? -21.8°
